| time (UTC) | temp F | wind direction | speed MPH | gust MPH | rain 1hr in | rain 24hr in | rain mn in | humidity % | barometer mb |
| 20260504034510 | 55 | 74 | 18.0 | 20.0 | 0.00 | 0.00 | 0.00 | 50 | |
| 20260504034010 | 55 | 85 | 16.0 | 20.0 | 0.00 | 0.00 | 0.00 | 50 | |
| 20260504033511 | 55 | 74 | 13.0 | 16.0 | 0.00 | 0.00 | 0.00 | 50 | |
| 20260504033010 | 55 | 77 | 16.0 | 18.0 | 0.00 | 0.00 | 0.00 | 50 | |
| 20260504032510 | 55 | 80 | 16.0 | 20.0 | 0.00 | 0.00 | 0.00 | 49 | |
| 20260504032012 | 55 | 91 | 18.0 | 20.0 | 0.00 | 0.00 | 0.00 | 48 | |
| 20260504031510 | 57 | 81 | 16.0 | 18.0 | 0.00 | 0.00 | 0.00 | 48 | |
| 20260504031010 | 57 | 83 | 13.0 | 18.0 | 0.00 | 0.00 | 0.00 | 48 | |
| 20260504030511 | 57 | 99 | 13.0 | 16.0 | 0.00 | 0.00 | 0.00 | 48 | |
| 20260504030010 | 57 | 94 | 9.0 | 9.0 | 0.00 | 0.00 | 0.00 | 48 | |
| 20260504025510 | 57 | 77 | 11.0 | 13.0 | 0.00 | 0.00 | 0.00 | 48 | |
| 20260504025011 | 57 | 69 | 11.0 | 13.0 | 0.00 | 0.00 | 0.00 | 48 | |
| 20260504024510 | 57 | 59 | 13.0 | 13.0 | 0.00 | 0.00 | 0.00 | 47 | |
| 20260504024010 | 57 | 57 | 11.0 | 13.0 | 0.00 | 0.00 | 0.00 | 47 | |
| 20260504023510 | 57 | 54 | 11.0 | 13.0 | 0.00 | 0.00 | 0.00 | 47 | |
| 20260504023011 | 57 | 57 | 11.0 | 11.0 | 0.00 | 0.00 | 0.00 | 47 | |
| 20260504022509 | 57 | 54 | 9.0 | 11.0 | 0.00 | 0.00 | 0.00 | 47 | |
| 20260504022014 | 57 | 61 | 9.0 | 11.0 | 0.00 | 0.00 | 0.00 | 47 | |
| 20260504021511 | 57 | 68 | 9.0 | 11.0 | 0.00 | 0.00 | 0.00 | 47 | |
| 20260504021011 | 57 | 65 | 11.0 | 11.0 | 0.00 | 0.00 | 0.00 | 47 | |
| 20260504020510 | 59 | 66 | 11.0 | 13.0 | 0.00 | 0.00 | 0.00 | 46 | |
| 20260504020010 | 59 | 63 | 13.0 | 13.0 | 0.00 | 0.00 | 0.00 | 46 | |
| 20260504015510 | 59 | 64 | 11.0 | 13.0 | 0.00 | 0.00 | 0.00 | 46 | |
| 20260504015011 | 59 | 69 | 11.0 | 11.0 | 0.00 | 0.00 | 0.00 | 46 | |
| 20260504014511 | 59 | 63 | 11.0 | 11.0 | 0.00 | 0.00 | 0.00 | 46 | |
| 20260504014010 | 59 | 61 | 13.0 | 13.0 | 0.00 | 0.00 | 0.00 | 46 | |
| 20260504013510 | 59 | 60 | 11.0 | 11.0 | 0.00 | 0.00 | 0.00 | 46 | |
| 20260504013010 | 59 | 62 | 9.0 | 11.0 | 0.00 | 0.00 | 0.00 | 46 | |
| 20260504012510 | 59 | 58 | 11.0 | 11.0 | 0.00 | 0.00 | 0.00 | 45 | |
| 20260504012012 | 59 | 50 | 9.0 | 11.0 | 0.00 | 0.00 | 0.00 | 45 | |
| 20260504011510 | 59 | 54 | 9.0 | 11.0 | 0.00 | 0.00 | 0.00 | 45 | |
| 20260504011011 | 59 | 52 | 9.0 | 11.0 | 0.00 | 0.00 | 0.00 | 45 | |
| 20260504010510 | 59 | 56 | 11.0 | 13.0 | 0.00 | 0.00 | 0.00 | 45 | |
| 20260504010010 | 59 | 59 | 11.0 | 13.0 | 0.00 | 0.00 | 0.00 | 45 | |
| 20260504005510 | 59 | 65 | 11.0 | 13.0 | 0.00 | 0.00 | 0.00 | 45 | |
| 20260504005010 | 59 | 66 | 11.0 | 13.0 | 0.00 | 0.00 | 0.00 | 45 | |
| 20260504004504 | 59 | 61 | 13.0 | 13.0 | 0.00 | 0.00 | 0.00 | 45 | |
| 20260504004010 | 59 | 52 | 13.0 | 13.0 | 0.00 | 0.00 | 0.00 | 44 | |
| 20260504003504 | 59 | 51 | 13.0 | 13.0 | 0.00 | 0.00 | 0.00 | 44 | |
| 20260504003004 | 59 | 49 | 13.0 | 13.0 | 0.00 | 0.00 | 0.00 | 44 | |
| 20260504002510 | 59 | 51 | 13.0 | 13.0 | 0.00 | 0.00 | 0.00 | 44 | |
| 20260504002013 | 59 | 47 | 13.0 | 13.0 | 0.00 | 0.00 | 0.00 | 44 | |
| 20260504001510 | 59 | 47 | 11.0 | 13.0 | 0.00 | 0.00 | 0.00 | 44 | |
| 20260504001011 | 59 | 44 | 11.0 | 13.0 | 0.00 | 0.00 | 0.00 | 44 | |
| 20260504000510 | 59 | 54 | 13.0 | 16.0 | 0.00 | 0.00 | 0.00 | 44 | |
| 20260504000011 | 59 | 57 | 13.0 | 16.0 | 0.00 | 0.00 | 0.00 | 44 | |
| 20260503235504 | 59 | 54 | 13.0 | 16.0 | 0.00 | 0.00 | 0.00 | 44 | |
| 20260503235010 | 61 | 58 | 13.0 | 16.0 | 0.00 | 0.00 | 0.00 | 43 | |
| 20260503234511 | 61 | 63 | 11.0 | 13.0 | 0.00 | 0.00 | 0.00 | 43 | |
| 20260503234011 | 61 | 74 | 11.0 | 11.0 | 0.00 | 0.00 | 0.00 | 43 | |
| 20260503233511 | 61 | 71 | 11.0 | 13.0 | 0.00 | 0.00 | 0.00 | 43 | |
| 20260503233011 | 61 | 68 | 11.0 | 13.0 | 0.00 | 0.00 | 0.00 | 42 | |
| 20260503232510 | 61 | 64 | 13.0 | 16.0 | 0.00 | 0.00 | 0.00 | 42 | |
| 20260503232014 | 61 | 60 | 11.0 | 13.0 | 0.00 | 0.00 | 0.00 | 41 | |
| 20260503231510 | 61 | 64 | 9.0 | 11.0 | 0.00 | 0.00 | 0.00 | 42 | |
| 20260503231010 | 63 | 67 | 11.0 | 11.0 | 0.00 | 0.00 | 0.00 | 41 | |
| 20260503230511 | 63 | 69 | 11.0 | 13.0 | 0.00 | 0.00 | 0.00 | 41 | |
| 20260503230011 | 63 | 59 | 13.0 | 13.0 | 0.00 | 0.00 | 0.00 | 41 | |
| 20260503225509 | 63 | 60 | 11.0 | 13.0 | 0.00 | 0.00 | 0.00 | 41 | |
| 20260503225010 | 63 | 56 | 13.0 | 16.0 | 0.00 | 0.00 | 0.00 | 40 | |
| 20260503224511 | 63 | 44 | 13.0 | 16.0 | 0.00 | 0.00 | 0.00 | 40 | |
| 20260503224010 | 63 | 41 | 13.0 | 16.0 | 0.00 | 0.00 | 0.00 | 40 | |
| 20260503223511 | 63 | 43 | 13.0 | 13.0 | 0.00 | 0.00 | 0.00 | 39 | |
| 20260503223010 | 63 | 46 | 11.0 | 13.0 | 0.00 | 0.00 | 0.00 | 39 | |
| 20260503222510 | 63 | 45 | 9.0 | 11.0 | 0.00 | 0.00 | 0.00 | 39 | |
| 20260503222012 | 63 | 43 | 11.0 | 11.0 | 0.00 | 0.00 | 0.00 | 39 | |
| 20260503221511 | 63 | 35 | 11.0 | 13.0 | 0.00 | 0.00 | 0.00 | 38 | |
| 20260503221011 | 63 | 48 | 11.0 | 13.0 | 0.00 | 0.00 | 0.00 | 39 | |
| 20260503220511 | 63 | 64 | 9.0 | 11.0 | 0.00 | 0.00 | 0.00 | 39 | |
| 20260503220011 | 63 | 70 | 9.0 | 11.0 | 0.00 | 0.00 | 0.00 | 38 | |
| 20260503215510 | 64 | 62 | 7.0 | 9.0 | 0.00 | 0.00 | 0.00 | 38 | |
| 20260503215011 | 64 | 62 | 7.0 | 7.0 | 0.00 | 0.00 | 0.00 | 37 | |
| 20260503214510 | 64 | 65 | 7.0 | 9.0 | 0.00 | 0.00 | 0.00 | 36 | |
| 20260503214010 | 64 | 92 | 4.0 | 7.0 | 0.00 | 0.00 | 0.00 | 36 | |
| 20260503213510 | 64 | 73 | 4.0 | 4.0 | 0.00 | 0.00 | 0.00 | 36 | |
| 20260503213011 | 64 | 79 | 7.0 | 7.0 | 0.00 | 0.00 | 0.00 | 36 | |
| 20260503212511 | 64 | 96 | 9.0 | 11.0 | 0.00 | 0.00 | 0.00 | 36 | |
| 20260503212013 | 64 | 96 | 9.0 | 13.0 | 0.00 | 0.00 | 0.00 | 36 | |
| 20260503211511 | 66 | 91 | 7.0 | 9.0 | 0.00 | 0.00 | 0.00 | 35 | |
| 20260503211011 | 66 | 112 | 9.0 | 11.0 | 0.00 | 0.00 | 0.00 | 35 | |
| 20260503210511 | 66 | 118 | 11.0 | 16.0 | 0.00 | 0.00 | 0.00 | 35 | |
| 20260503210010 | 66 | 102 | 13.0 | 16.0 | 0.00 | 0.00 | 0.00 | 35 | |
| 20260503205510 | 66 | 116 | 16.0 | 16.0 | 0.00 | 0.00 | 0.00 | 35 | |
| 20260503205010 | 66 | 98 | 13.0 | 13.0 | 0.00 | 0.00 | 0.00 | 34 | |
| 20260503204510 | 66 | 106 | 13.0 | 13.0 | 0.00 | 0.00 | 0.00 | 34 | |
| 20260503204010 | 66 | 107 | 11.0 | 13.0 | 0.00 | 0.00 | 0.00 | 34 | |
| 20260503203510 | 66 | 102 | 16.0 | 18.0 | 0.00 | 0.00 | 0.00 | 34 | |
| 20260503203010 | 66 | 109 | 13.0 | 16.0 | 0.00 | 0.00 | 0.00 | 34 | |
| 20260503202511 | 66 | 99 | 13.0 | 16.0 | 0.00 | 0.00 | 0.00 | 34 | |
| 20260503202012 | 66 | 117 | 11.0 | 13.0 | 0.00 | 0.00 | 0.00 | 34 | |
| 20260503201515 | 66 | 100 | 13.0 | 16.0 | 0.00 | 0.00 | 0.00 | 33 | |
| 20260503201010 | 66 | 104 | 16.0 | 18.0 | 0.00 | 0.00 | 0.00 | 33 | |
| 20260503200510 | 66 | 105 | 13.0 | 16.0 | 0.00 | 0.00 | 0.00 | 33 | |
| 20260503200011 | 66 | 108 | 16.0 | 18.0 | 0.00 | 0.00 | 0.00 | 33 | |
| 20260503195510 | 68 | 109 | 16.0 | 18.0 | 0.00 | 0.00 | 0.00 | 32 | |
| 20260503195010 | 66 | 109 | 18.0 | 20.0 | 0.00 | 0.00 | 0.00 | 32 | |
| 20260503194510 | 68 | 105 | 16.0 | 20.0 | 0.00 | 0.00 | 0.00 | 31 | |
| 20260503194009 | 68 | 107 | 18.0 | 18.0 | 0.00 | 0.00 | 0.00 | 31 | |
| 20260503193510 | 68 | 111 | 16.0 | 18.0 | 0.00 | 0.00 | 0.00 | 30 | |
| 20260503193010 | 68 | 110 | 16.0 | 18.0 | 0.00 | 0.00 | 0.00 | 30 | |
| 20260503192511 | 68 | 114 | 18.0 | 20.0 | 0.00 | 0.00 | 0.00 | 30 | |
| 20260503192012 | 68 | 111 | 18.0 | 20.0 | 0.00 | 0.00 | 0.00 | 29 | |
| 20260503191511 | 68 | 112 | 18.0 | 20.0 | 0.00 | 0.00 | 0.00 | 29 | |
| 20260503191010 | 70 | 117 | 18.0 | 20.0 | 0.00 | 0.00 | 0.00 | 28 | |
| 20260503190511 | 68 | 113 | 16.0 | 20.0 | 0.00 | 0.00 | 0.00 | 29 | |
| 20260503190010 | 70 | 110 | 16.0 | 16.0 | 0.00 | 0.00 | 0.00 | 28 | |
| 20260503185510 | 70 | 107 | 16.0 | 16.0 | 0.00 | 0.00 | 0.00 | 28 | |
| 20260503185010 | 70 | 104 | 18.0 | 20.0 | 0.00 | 0.00 | 0.00 | 28 | |
| 20260503184511 | 70 | 106 | 16.0 | 18.0 | 0.00 | 0.00 | 0.00 | 28 | |
| 20260503184012 | 70 | 103 | 16.0 | 18.0 | 0.00 | 0.00 | 0.00 | 28 | |
| 20260503183510 | 70 | 99 | 16.0 | 18.0 | 0.00 | 0.00 | 0.00 | 28 | |
| 20260503183011 | 70 | 100 | 16.0 | 18.0 | 0.00 | 0.00 | 0.00 | 28 | |
| 20260503182510 | 70 | 98 | 16.0 | 18.0 | 0.00 | 0.00 | 0.00 | 28 | |
| 20260503182014 | 70 | 97 | 16.0 | 16.0 | 0.00 | 0.00 | 0.00 | 27 | |
| 20260503181511 | 70 | 96 | 16.0 | 18.0 | 0.00 | 0.00 | 0.00 | 27 | |
| 20260503181011 | 72 | 88 | 18.0 | 20.0 | 0.00 | 0.00 | 0.00 | 27 | |
| 20260503180511 | 72 | 91 | 18.0 | 18.0 | 0.00 | 0.00 | 0.00 | 27 | |
| 20260503180015 | 72 | 98 | 16.0 | 20.0 | 0.00 | 0.00 | 0.00 | 27 | |
| 20260503175510 | 72 | 89 | 18.0 | 20.0 | 0.00 | 0.00 | 0.00 | 26 | |
| 20260503175010 | 72 | 88 | 20.0 | 22.0 | 0.00 | 0.00 | 0.00 | 26 | |
| 20260503174510 | 72 | 93 | 16.0 | 16.0 | 0.00 | 0.00 | 0.00 | 26 | |
| 20260503174010 | 72 | 85 | 18.0 | 20.0 | 0.00 | 0.00 | 0.00 | 26 | |
| 20260503173511 | 72 | 88 | 18.0 | 22.0 | 0.00 | 0.00 | 0.00 | 26 | |
| 20260503173011 | 72 | 84 | 18.0 | 20.0 | 0.00 | 0.00 | 0.00 | 26 | |
| 20260503172510 | 72 | 87 | 18.0 | 20.0 | 0.00 | 0.00 | 0.00 | 26 | |
| 20260503172013 | 72 | 85 | 18.0 | 20.0 | 0.00 | 0.00 | 0.00 | 26 | |
| 20260503171510 | 72 | 88 | 16.0 | 18.0 | 0.00 | 0.00 | 0.00 | 27 | |
| 20260503171011 | 72 | 81 | 18.0 | 20.0 | 0.00 | 0.00 | 0.00 | 26 | |
| 20260503170511 | 72 | 88 | 16.0 | 18.0 | 0.00 | 0.00 | 0.00 | 26 | |
| 20260503151010 | 73 | 90 | 16.0 | 18.0 | 0.00 | 0.00 | 0.00 | 24 | |
| 20260503150511 | 73 | 82 | 11.0 | 16.0 | 0.00 | 0.00 | 0.00 | 25 | |
| 20260503131010 | 72 | 105 | 9.0 | 11.0 | 0.00 | 0.00 | 0.00 | 29 | |
| 20260503130510 | 72 | 70 | 7.0 | 9.0 | 0.00 | 0.00 | 0.00 | 29 | |
| 20260503110510 | 70 | 109 | 9.0 | 11.0 | 0.00 | 0.00 | 0.00 | 33 | |
| 20260503090510 | 66 | 92 | 4.0 | 7.0 | 0.00 | 0.00 | 0.00 | 39 | |
| 20260503081511 | 63 | 103 | 7.0 | 7.0 | 0.00 | 0.00 | 0.00 | 42 | |
| 20260503081010 | 61 | 99 | 4.0 | 7.0 | 0.00 | 0.00 | 0.00 | 43 | |
| 20260503080510 | 61 | 93 | 2.0 | 4.0 | 0.00 | 0.00 | 0.00 | 44 | |
| 20260503072510 | 55 | 106 | 9.0 | 9.0 | 0.00 | 0.00 | 0.00 | 48 | |
| 20260503072010 | 55 | 107 | 11.0 | 13.0 | 0.00 | 0.00 | 0.00 | 48 | |
| 20260503071510 | 55 | 109 | 11.0 | 13.0 | 0.00 | 0.00 | 0.00 | 48 | |
| 20260503071010 | 55 | 107 | 11.0 | 13.0 | 0.00 | 0.00 | 0.00 | 48 | |
| 20260503070511 | 55 | 108 | 11.0 | 13.0 | 0.00 | 0.00 | 0.00 | 48 | |
| 20260503055009 | 52 | 87 | 9.0 | 13.0 | 0.00 | 0.00 | 0.00 | 48 | |
| 20260503054511 | 52 | 70 | 9.0 | 11.0 | 0.00 | 0.00 | 0.00 | 48 | |
| 20260503054010 | 52 | 86 | 7.0 | 9.0 | 0.00 | 0.00 | 0.00 | 47 | |
| 20260503053511 | 52 | 81 | 9.0 | 11.0 | 0.00 | 0.00 | 0.00 | 47 | |
| 20260503053009 | 52 | 87 | 9.0 | 11.0 | 0.00 | 0.00 | 0.00 | 47 | |
| 20260503052510 | 52 | 86 | 11.0 | 11.0 | 0.00 | 0.00 | 0.00 | 48 | |
| 20260503051511 | 52 | 92 | 11.0 | 13.0 | 0.00 | 0.00 | 0.00 | 48 | |
| 20260503051011 | 52 | 95 | 11.0 | 13.0 | 0.00 | 0.00 | 0.00 | 47 | |
| 20260503050510 | 52 | 96 | 11.0 | 13.0 | 0.00 | 0.00 | 0.00 | 46 | |
| 20260503050010 | 52 | 98 | 11.0 | 13.0 | 0.00 | 0.00 | 0.00 | 47 | |
| 20260503045510 | 52 | 99 | 11.0 | 13.0 | 0.00 | 0.00 | 0.00 | 47 | |
| 20260503045010 | 52 | 102 | 11.0 | 11.0 | 0.00 | 0.00 | 0.00 | 46 | |
| 20260503044511 | 52 | 98 | 11.0 | 13.0 | 0.00 | 0.00 | 0.00 | 46 | |
| 20260503044010 | 52 | 97 | 11.0 | 11.0 | 0.00 | 0.00 | 0.00 | 47 | |
| 20260503043510 | 52 | 96 | 9.0 | 11.0 | 0.00 | 0.00 | 0.00 | 47 | |
| 20260503043010 | 52 | 94 | 9.0 | 11.0 | 0.00 | 0.00 | 0.00 | 46 | |
| 20260503042012 | 52 | 92 | 11.0 | 11.0 | 0.00 | 0.00 | 0.00 | 46 | |
| 20260503041511 | 52 | 85 | 9.0 | 9.0 | 0.00 | 0.00 | 0.00 | 46 | |
| 20260503041010 | 52 | 94 | 9.0 | 11.0 | 0.00 | 0.00 | 0.00 | 46 | |
| 20260503040510 | 52 | 95 | 9.0 | 9.0 | 0.00 | 0.00 | 0.00 | 46 | |
| 20260503040010 | 52 | 93 | 9.0 | 11.0 | 0.00 | 0.00 | 0.00 | 47 | |
| 20260503035509 | 52 | 94 | 11.0 | 11.0 | 0.00 | 0.00 | 0.00 | 47 | |
| 20260503035010 | 52 | 92 | 11.0 | 13.0 | 0.00 | 0.00 | 0.00 | 46 |